This is the latest recevied weather packets stored in our database for station/object OK1UOJ. If no packets are shown the sender has not sent any weather packets the latest 10 day(s).
| Time | Temp. | Humidity | Pressure | Rain* | Wind** | Luminosity | Snow |
|---|---|---|---|---|---|---|---|
| 1777903521 | 27.22° C | 50% | 1014.2 hPa | - | - | - | - |
| 1777903241 | 27.22° C | 50% | 1014.2 hPa | - | - | - | - |
| 1777902962 | 27.22° C | 48% | 1014.2 hPa | - | - | - | - |
| 1777902124 | 27.22° C | 46% | 1014.4 hPa | - | - | - | - |
| 1777901286 | 26.11° C | 58% | 1014.5 hPa | - | - | - | - |
| 1777900729 | 25.56° C | 51% | 1014.5 hPa | - | - | - | - |
| 1777900449 | 25.56° C | 53% | 1014.6 hPa | - | - | - | - |
| 1777900171 | 25.56° C | 52% | 1014.6 hPa | - | - | - | - |
| 1777899896 | 26.11° C | 56% | 1014.7 hPa | - | - | - | - |
| 1777899896 | 26.11° C | 56% | 1014.7 hPa | - | - | - | - |
| 1777899891 | 26.11° C | 56% | 1014.7 hPa | - | - | - | - |
| 1777899617 | 25° C | 58% | 1014.7 hPa | - | - | - | - |
| 1777899612 | 25° C | 58% | 1014.7 hPa | - | - | - | - |
| 1777899055 | 24.44° C | 59% | 1014.9 hPa | - | - | - | - |
| 1777898776 | 23.89° C | 61% | 1014.9 hPa | - | - | - | - |
| 1777898501 | 23.89° C | 65% | 1015 hPa | - | - | - | - |
| 1777898497 | 23.89° C | 65% | 1015 hPa | - | - | - | - |
| 1777898223 | 23.33° C | 62% | 1015 hPa | - | - | - | - |
| 1777898218 | 23.33° C | 62% | 1015 hPa | - | - | - | - |
| 1777897660 | 22.78° C | 80% | 1015.1 hPa | - | - | - | - |
| 1777897382 | 22.78° C | 68% | 1015.1 hPa | - | - | - | - |
| 1777896830 | 23.33° C | 69% | 1015.2 hPa | - | - | - | - |
| 1777896825 | 23.33° C | 69% | 1015.2 hPa | - | - | - | - |
| 1777896272 | 23.33° C | 67% | 1015.1 hPa | - | - | - | - |
| 1777896267 | 23.33° C | 67% | 1015.1 hPa | - | - | - | - |
* Rain since midnight (hover to see other rain measurements)
** Current wind speed in m/s (hover to see current wind gust speed)